This demonstration page uses our WeatherBlox Daily Observations layout. Learn more.

Left ArrowRight Arrow

Hourly Observations for April 26, 2016

Temp ( °F °C ) Dew Point ( °F °C ) Humidity (%) Winds ( mph kmh ) Pressure ( in mb ) Visibility ( mi km ) Precip ( " mm )
12:54 am 00:54 Mostly Cloudy 57 13.9 52 11.1 83 83 NNE 13 20 29.74 1007 10 16 0.00 0.00
1:54 am 01:54 Mostly Cloudy 56 13.3 50 10 81 81 NNE 12 19 29.78 1008 10 16 0.00 0.00
2:54 am 02:54 Clear 54 12.2 48 8.9 80 80 NNE 12 19 29.75 1007 10 16 0.00 0.00
3:54 am 03:54 Cloudy 54 12.2 48 8.9 80 80 NNE 12 19 29.75 1007 10 16 0.00 0.00
4:54 am 04:54 Mostly Clear 53 11.7 48 8.9 83 83 NNE 15 24 29.71 1006 10 16 0.00 0.00
5:54 am 05:54 Partly Cloudy 53 11.7 48 8.9 83 83 NE 17 28 29.67 1005 10 16 0.00 0.00
6:54 am 06:54 Partly Cloudy 53 11.7 47 8.3 80 80 NNE 17 28 29.68 1005 10 16 0.00 0.00
7:54 am 07:54 Mostly Sunny 53 11.7 46 7.8 77 77 NE 15 24 29.70 1006 10 16 0.00 0.00
8:54 am 08:54 Sunny 54 12.2 47 8.3 77 77 NE 9 15 29.71 1006 10 16 0.00 0.00
9:16 am 09:16 Mostly Cloudy 54 12 46 8 77 77 NE 15 24 29.71 1006 10 16 0.00 0.00
9:54 am 09:54 Cloudy 55 12.8 47 8.3 74 74 ENE 15 24 29.70 1006 10 16 0.00 0.00
10:13 am 10:13 Cloudy 55 13 48 9 77 77 ENE 13 20 29.71 1006 10 16 0.00 0.00
10:54 am 10:54 Mostly Cloudy 60 15.6 50 10 70 70 NE 10 17 29.71 1006 10 16 0.00 0.00
11:01 am 11:01 Partly Cloudy 61 16 50 10 68 68 NNE 8 13 29.71 1006 10 16 0.00 0.00
11:54 am 11:54 Mostly Sunny 64 17.8 51 10.6 63 63 NE 12 19 29.71 1006 10 16 0.00 0.00
12:54 pm 12:54 Sunny 69 20.6 53 11.7 57 57 ENE 16 26 29.67 1005 10 16 0.00 0.00
1:54 pm 13:54 Sunny 70 21.1 53 11.7 55 55 E 15 24 29.66 1005 10 16 0.00 0.00
2:54 pm 14:54 Sunny 74 23.3 54 12.2 50 50 ESE 12 19 29.66 1004 10 16 0.00 0.00
3:54 pm 15:54 Mostly Cloudy 74 23.3 55 12.8 52 52 ESE 15 24 29.63 1004 10 16 0.00 0.00
4:54 pm 16:54 Partly Cloudy 73 22.8 56 13.3 55 55 E 17 28 29.60 1002 10 16 0.00 0.00
5:54 pm 17:54 Cloudy 70 21.1 56 13.3 61 61 ENE 15 24 29.60 1002 10 16 0.00 0.00
6:20 pm 18:20 Cloudy with Nearby Thunderstorms 69 20.6 56 13.3 63 63 ENE 13 20 29.56 1001 10 16 0.00 0.00
6:40 pm 18:40 Cloudy with Thunderstorms 68 20 58 14.4 70 70 Calm 29.59 1002 5 8 0.00 0.03
6:48 pm 18:48 Cloudy with Strong Thunderstorms 66 19 59 15 78 78 WNW 10 17 29.62 1003 2 3 0.06 1.52
6:54 pm 18:54 Cloudy with Strong Thunderstorms 65 18.3 60 15.6 84 84 NW 9 15 29.65 1004 2 2 0.20 5.08
7:02 pm 19:02 Cloudy with Strong Thunderstorms 64 17.8 60 15.6 87 87 N 12 19 29.62 1003 3 5 0.06 1.52
7:33 pm 19:33 Cloudy with Nearby Thunderstorms 63 17.2 60 15.6 90 90 NE 13 20 29.62 1003 6 10 0.12 3.05
7:54 pm 19:54 Cloudy 63 17.2 60 15.6 90 90 NNE 13 20 29.61 1003 10 16 0.13 3.30
8:54 pm 20:54 Mostly Cloudy 63 17.2 59 15 87 87 N 13 20 29.61 1003 10 16 0.00 0.00
9:54 pm 21:54 Cloudy 62 16.7 59 15 90 90 NNE 10 17 29.64 1004 10 16 0.00 0.03
10:54 pm 22:54 Cloudy with Rain 62 16.7 58 14.4 86 86 NE 9 15 29.66 1004 5 8 0.05 1.27
11:54 pm 23:54 Cloudy with Nearby Thunderstorms 61 16.1 58 14.4 90 90 ENE 9 15 29.62 1003 8 13 0.13 3.30

Powered by AerisWeather